カタログに戻る

COSMOS 1897

運用中軍事GEO
NORAD 18575·PAYLOAD·🇷🇺 Russia

打ち上げ Nov 26, 1987 から Baikonur Cosmodrome

Loading…

TLE

最新Source: Space-Track

元期: Sep 14, 2026, 15:58 UTC

1 18575U 87096A   26257.66566808 -.00000306  00000-0  00000-0 0  9993
2 18575  10.9065 326.3392 0006634 163.8559 200.2749  1.00281577142094

AllMySatでCOSMOS 1897をリアルタイム追跡

Download on the App Store